Home   Weather   Clifton   Past weeks
Flag for USA

Past Weather in Clifton, Colorado, USA — Yesterday and Last 2 Weeks

Now
41 °F

Sunny.


Feels Like: 34 °F
Forecast: 63 / 35 °F
Wind: 12 mph from Southeast

Location: Walker Field

Current Time: Oct 19, 2019 at 10:06:31 am

Latest Report: Oct 19, 2019 at 8:53 am


Visibility: 10 mi

Pressure: 29.98 "Hg (25.12 "Hg at 1440m altitude)

Humidity: 45%

Dew Point: 21 °F

Location of CliftonLocation

Past Weather in Clifton — Graph

°F

Clifton Temperature Yesterday

Maximum temperature yesterday: 62 °F (at 1:53 am)
Minimum temperature yesterday: 36 °F (at 11:53 pm)
Average temperature yesterday: 54 °F

High & Low Weather Summary for the Past Weeks

 TemperatureHumidityPressure
High81 °F (Oct 4, 2:53 pm)61% (Oct 18, 7:53 am)30.46 "Hg (Oct 18, 7:53 am)
Low22 °F (Oct 11, 5:53 am)6% (Oct 11, 3:53 pm)29.41 "Hg (Oct 9, 4:53 pm)
Average51 °F22%29.99 "Hg
* Reported Oct 4 7:53 am — Oct 19 7:53 am, Clifton. Weather by CustomWeather, © 2019

Note: Actual official high and low records may vary slightly from our data, if they occured in-between our weather recording intervals... More about our weather records

Advertising

Clifton Weather History for the Previous 24 Hours

Scroll right to see more
 ConditionsComfort  
Time TempWeatherWind HumidityBarometerVisibility
7:53 am
Sat, Oct 19
36 °FSunny.10 mph52%29.98 "Hg10 mi
6:53 am34 °FClear.12 mph59%29.97 "Hg10 mi
5:53 am33 °FClear.9 mph58%29.95 "Hg10 mi
4:53 am35 °FClear.6 mph54%29.93 "Hg10 mi
3:53 am34 °FClear.7 mph52%29.94 "Hg10 mi
2:53 am38 °FClear.3 mph48%29.94 "Hg10 mi
1:53 am38 °FClear.6 mph48%29.93 "Hg10 mi
12:53 am35 °FClear.3 mph46%29.93 "Hg10 mi
11:53 pm
Fri, Oct 18
36 °FClear.No wind44%29.93 "Hg10 mi
10:53 pm43 °FClear.5 mph40%29.90 "Hg10 mi
9:53 pm45 °FClear.12 mph35%29.88 "Hg10 mi
8:53 pm48 °FClear.3 mph30%29.86 "Hg10 mi
7:53 pm50 °FClear.No wind33%29.84 "Hg10 mi
6:53 pm52 °FClear.5 mph30%29.78 "Hg10 mi
5:53 pm60 °FSunny.3 mph22%29.75 "Hg10 mi
4:53 pm60 °FSunny.No wind22%29.74 "Hg10 mi
3:53 pm62 °FSunny.9 mph20%29.75 "Hg10 mi
2:53 pm60 °FSunny.8 mph19%29.74 "Hg10 mi
1:53 pm59 °FSunny.9 mph19%29.74 "Hg10 mi
12:53 pm60 °FOvercast.9 mph20%29.75 "Hg10 mi
11:53 am56 °FPassing clouds.7 mph36%29.77 "Hg10 mi
10:53 am54 °FPassing clouds.8 mph45%29.76 "Hg10 mi
Weather by CustomWeather, © 2019

See weather overview